YG1CIC-13 Weather Reports


time (UTC)temp
F
wind
direction
speed
knots
gust
knots
rain 1hr
in
rain 24hr
in
rain mn
in
humidity
%
barometer
mb
20260503033105 98 0 0.0 0.0 0.00 0.00 0.00 58
20260503032105 98 0 0.0 0.0 0.00 0.00 0.00 58
20260503031104 100 0 0.0 0.0 0.00 0.00 0.00 56
20260503030103 100 0 0.0 0.0 0.00 0.00 0.00 58
20260503025103 100 0 0.0 0.0 0.00 0.00 0.00 57
20260503024102 100 0 0.0 0.0 0.00 0.00 0.00 57
20260503023101 101 0 0.0 0.0 0.00 0.00 0.00 54
20260503022101 107 0 0.0 0.0 0.00 0.00 0.00 49
20260503021100 106 0 0.0 0.0 0.00 0.00 0.00 50
20260503020100 108 0 0.0 0.0 0.00 0.00 0.00 48
20260503015059 106 0 0.0 0.0 0.00 0.00 0.00 50
20260503014058 106 0 0.0 0.0 0.00 0.00 0.00 51
20260503013057 105 0 0.0 0.0 0.00 0.00 0.00 52
20260503012057 105 0 0.0 0.0 0.00 0.00 0.00 52
20260503011056 104 0 0.0 0.0 0.00 0.00 0.00 54
20260503010055 101 0 0.0 0.0 0.00 0.00 0.00 59
20260503005055 100 0 0.0 0.0 0.00 0.00 0.00 60
20260503004101 97 0 0.0 0.0 0.00 0.00 0.00 63
20260503003054 95 0 0.0 0.0 0.00 0.00 0.00 67
20260503002053 93 0 0.0 0.0 0.00 0.00 0.00 71
20260503001052 87 0 0.0 0.0 0.00 0.00 0.00 83
20260503000052 86 0 0.0 0.0 0.00 0.00 0.00 83
20260502235051 83 0 0.0 0.0 0.00 0.00 0.00 89
20260502234051 83 0 0.0 0.0 0.00 0.00 0.00 91
20260502233050 81 0 0.0 0.0 0.00 0.00 0.00 87
20260502232049 80 0 0.0 0.0 0.00 0.00 0.00 90
20260502231049 80 0 0.0 0.0 0.00 0.00 0.00 92
20260502230048 80 0 0.0 0.0 0.00 0.00 0.00 89
20260502225048 80 0 0.0 0.0 0.00 0.00 0.00 89
20260502224047 80 0 0.0 0.0 0.00 0.00 0.00 89
20260502223046 80 0 0.0 0.0 0.00 0.00 0.00 88
20260502222046 80 0 0.0 0.0 0.00 0.00 0.00 92
20260502221045 80 0 0.0 0.0 0.00 0.00 0.00 90
20260502220044 80 0 0.0 0.0 0.00 0.00 0.00 89
20260502215044 80 0 0.0 0.0 0.00 0.00 0.00 92
20260502214043 81 0 0.0 0.0 0.00 0.00 0.00 95
20260502213043 81 0 0.0 0.0 0.00 0.00 0.00 95
20260502212042 81 0 0.0 0.0 0.00 0.00 0.00 94
20260502211041 81 0 0.0 0.0 0.00 0.00 0.00 94
20260502210041 81 0 0.0 0.0 0.00 0.00 0.00 94
20260502205040 81 0 0.0 0.0 0.00 0.00 0.00 94
20260502204039 81 0 0.0 0.0 0.00 0.00 0.00 92
20260502203039 81 0 0.0 0.0 0.00 0.00 0.00 91
20260502202038 81 0 0.0 0.0 0.00 0.00 0.00 90
20260502201038 81 0 0.0 0.0 0.00 0.00 0.00 89
20260502200037 82 0 0.0 0.0 0.00 0.00 0.00 92
20260502195036 82 0 0.0 0.0 0.00 0.00 0.00 90
20260502194036 82 0 0.0 0.0 0.00 0.00 0.00 88
20260502193035 82 0 0.0 0.0 0.00 0.00 0.00 89
20260502192035 82 0 0.0 0.0 0.00 0.00 0.00 84
20260502191034 82 0 0.0 0.0 0.00 0.00 0.00 83
20260502190033 82 0 0.0 0.0 0.00 0.00 0.00 85
20260502185033 82 0 0.0 0.0 0.00 0.00 0.00 86
20260502184032 82 0 0.0 0.0 0.00 0.00 0.00 84
20260502183031 82 0 0.0 0.0 0.00 0.00 0.00 84
20260502182031 82 0 0.0 0.0 0.00 0.00 0.00 84
20260502181030 82 0 0.0 0.0 0.00 0.00 0.00 88
20260502164025 83 0 0.0 0.0 0.00 0.00 0.00 92
20260502163024 83 0 0.0 0.0 0.00 0.00 0.00 93
20260502162024 83 0 0.0 0.0 0.00 0.00 0.00 91
20260502161023 83 0 0.0 0.0 0.00 0.00 0.00 86
20260502152020 83 0 0.0 0.0 0.00 0.00 0.00 84
20260502151019 83 0 0.0 0.0 0.00 0.00 0.00 85
20260502123010 84 0 0.0 0.0 0.00 0.00 0.00 89
20260502122009 84 0 0.0 0.0 0.00 0.00 0.00 90
20260502121008 84 0 0.0 0.0 0.00 0.00 0.00 90
20260502115007 85 0 0.0 0.0 0.00 0.00 0.00 91
20260502114014 85 0 0.0 0.0 0.00 0.00 0.00 90
20260502113006 85 0 0.0 0.0 0.00 0.00 0.00 91
20260502112006 86 0 0.0 0.0 0.00 0.00 0.00 91
20260502111005 86 0 0.0 0.0 0.00 0.00 0.00 89
20260502110004 87 0 0.0 0.0 0.00 0.00 0.00 87
20260502105004 87 0 0.0 0.0 0.00 0.00 0.00 86
20260502104003 87 0 0.0 0.0 0.00 0.00 0.00 85
20260502103003 87 0 0.0 0.0 0.00 0.00 0.00 86
20260502102002 89 0 0.0 0.0 0.00 0.00 0.00 80
20260502101001 88 0 0.0 0.0 0.00 0.00 0.00 85
20260502090958 90 0 0.0 0.0 0.00 0.00 0.00 78
20260502070951 94 0 0.0 0.0 0.00 0.00 0.00 64
20260502065950 96 0 0.0 0.0 0.00 0.00 0.00 62
20260502064950 98 0 0.0 0.0 0.00 0.00 0.00 60
20260502063949 98 0 0.0 0.0 0.00 0.00 0.00 61
20260502062949 98 0 0.0 0.0 0.00 0.00 0.00 60
20260502061948 99 0 0.0 0.0 0.00 0.00 0.00 59
20260502060947 97 0 0.0 0.0 0.00 0.00 0.00 60
20260502055947 98 0 0.0 0.0 0.00 0.00 0.00 58
20260502054946 99 0 0.0 0.0 0.00 0.00 0.00 58
20260502053946 99 0 0.0 0.0 0.00 0.00 0.00 58
20260502052945 100 0 0.0 0.0 0.00 0.00 0.00 56
20260502051944 99 0 0.0 0.0 0.00 0.00 0.00 58
20260502050944 99 0 0.0 0.0 0.00 0.00 0.00 57
20260502045943 100 0 0.0 0.0 0.00 0.00 0.00 56
20260502044943 100 0 0.0 0.0 0.00 0.00 0.00 56
20260502043944 100 0 0.0 0.0 0.00 0.00 0.00 56
20260502042942 100 0 0.0 0.0 0.00 0.00 0.00 55
20260502041941 99 0 0.0 0.0 0.00 0.00 0.00 57
20260502040941 101 0 0.0 0.0 0.00 0.00 0.00 55
20260502035940 100 0 0.0 0.0 0.00 0.00 0.00 56
20260502034940 100 0 0.0 0.0 0.00 0.00 0.00 53
20260502033939 100 0 0.0 0.0 0.00 0.00 0.00 54